Location: Auchsesheim
(48.6894°N, 10.7819°E)
Time: 09:49:40
(UTC+00:00)

Daily predictions for brighter satellites

Satellite Brightness Start Highest point End
(mag) Time Altitude Azimuth Time Altitude Azimuth Time Altitude Azimuth
CZ-2C R/B 3.4 18:08:45 10° SE 18:13:28 42° ENE 18:18:02 10° N
STARLINK-1130 (DARKSAT) 4.3 18:11:07 10° WNW 18:15:09 48° N 18:19:10 10° E
STARLINK-1082 3.6 18:11:20 10° WNW 18:15:23 84° NNE 18:19:26 10° ESE
STARLINK-1232 3.3 18:12:30 10° SW 18:15:28 42° SE 18:18:26 10° ENE
Cosmos 1048 Rocket 3.9 18:10:30 10° SSW 18:15:36 76° ESE 18:20:49 10° NNE
STARLINK-1240 4.3 18:12:11 10° SSW 18:15:47 32° SE 18:19:24 10° ENE
STARLINK-1217 3.3 18:12:57 10° SW 18:15:54 42° SSE 18:18:54 10° ENE
STARLINK-1208 3.3 18:13:22 10° SW 18:16:20 43° SSE 18:19:22 10° ENE
STARLINK-1229 3.3 18:13:49 10° SW 18:16:48 43° SSE 18:19:47 10° ENE
STARLINK-1271 3.3 18:14:17 10° SW 18:17:16 43° SE 18:20:16 10° ENE
STARLINK-1270 3.3 18:14:44 10° SW 18:17:43 44° SSE 18:20:43 10° ENE
Meteor 1-22 Rocket 4.3 18:12:44 10° SSE 18:17:46 46° E 18:22:48 10° NNE
STARLINK-1154 3.3 18:15:10 10° SW 18:18:09 44° SSE 18:21:09 10° ENE
Resurs 01 Rocket 3.3 18:16:18 10° E 18:19:00 16° ENE 18:21:43 10° NNE
STARLINK-1197 3.3 18:16:04 10° SW 18:19:03 45° SSE 18:22:03 10° ENE
STARLINK-1189 3.2 18:16:31 10° SW 18:19:31 45° SE 18:22:31 10° ENE
Cosmos 1939 Rocket 4.3 18:15:46 10° S 18:19:34 42° W 18:23:20 10° NNW
STARLINK-1100 3.6 18:15:53 10° WNW 18:19:57 88° NNE 18:23:59 10° ESE
STARLINK-1084 4.2 18:16:06 10° WNW 18:20:09 49° N 18:24:11 10° E
STARLINK-1187 3.1 18:17:18 10° SW 18:20:21 51° SSE 18:23:24 10° ENE
STARLINK-1216 4.2 18:16:42 10° SSW 18:20:22 35° SE 18:24:03 10° ENE
STARLINK-1188 3.2 18:17:24 10° SW 18:20:24 46° SE 18:23:24 10° ENE
STARLINK-1198 3.2 18:17:39 10° SW 18:20:39 46° SSE 18:23:39 10° ENE
STARLINK-1235 3.0 18:17:57 10° SW 18:21:01 58° SSE 18:24:08 10° ENE
Cosmos 371 Rocket 4.0 18:16:22 10° NNW 18:21:07 57° WSW 18:25:50 10° S
Cosmos 494 Rocket 4.1 18:17:00 10° S 18:21:59 52° ESE 18:27:02 10° NNE
USA 81 4.0 18:16:57 10° N 18:22:15 72° E 18:27:30 10° SSE
STARLINK-1199 3.2 18:19:19 10° SW 18:22:21 48° SSE 18:25:24 10° ENE
STARLINK-1191 3.2 18:19:47 10° SW 18:22:48 48° SSE 18:25:52 10° ENE
CZ-4C R/B 4.0 18:18:01 10° W 18:22:55 32° NNW 18:28:42 10° NE
Cosmos 1733 3.4 18:19:22 10° SSE 18:22:58 46° E 18:26:36 10° NNE
STARLINK-1210 3.2 18:20:13 10° SW 18:23:15 48° SSE 18:26:19 10° ENE
STARLINK-1221 3.2 18:20:41 10° SW 18:23:43 49° SSE 18:26:47 10° ENE
STARLINK-1219 3.1 18:21:07 10° SW 18:24:09 49° SSE 18:27:13 10° ENE
STARLINK-67 2.3 18:21:57 10° WSW 18:24:32 85° SSE 18:27:07 10° ENE
STARLINK-1083 3.6 18:20:29 10° WNW 18:24:33 88° SSW 18:28:36 10° ESE
STARLINK-1222 3.1 18:21:33 10° SW 18:24:36 50° SSE 18:27:40 10° ENE
STARLINK-1237 4.1 18:21:17 10° SSW 18:25:00 37° SE 18:28:44 10° ENE
STARLINK-1211 3.1 18:22:01 10° SW 18:25:03 50° SSE 18:28:07 10° ENE
Cosmos 1709 Rocket 4.2 18:19:00 10° N 18:25:04 50° ENE 18:31:01 10° SSE
STARLINK-1098 4.2 18:21:05 10° WNW 18:25:08 50° N 18:29:11 10° E
FREGAT/IRIS 2.8 18:22:46 10° SE 18:25:21 40° ENE 18:27:57 10° N
STARLINK-1214 3.1 18:22:28 10° SW 18:25:30 50° SSE 18:28:34 10° ENE
STARLINK-1245 3.1 18:22:57 10° SW 18:25:59 51° SSE 18:29:01 10° ENE
SPOT 3 Rocket 4.3 18:21:37 10° SE 18:26:19 35° ENE 18:31:02 10° N
STARLINK-1238 3.1 18:23:22 10° SW 18:26:25 51° SSE 18:29:29 10° ENE
Cosmos 1331 Rocket 4.0 18:21:20 10° NNW 18:26:32 79° ENE 18:31:41 10° SSE
STARLINK-1205 3.1 18:24:18 10° SW 18:27:20 52° SSE 18:30:24 10° ENE
STARLINK-1204 3.0 18:24:43 10° SW 18:27:46 52° SSE 18:30:50 10° ENE
Cosmos 1674 3.1 18:24:01 10° NNW 18:27:46 67° W 18:31:28 10° S
Cosmos 2219 Rocket 3.7 18:23:49 10° WSW 18:29:09 41° NW 18:34:30 10° NNE
STARLINK-1125 3.6 18:25:06 10° WNW 18:29:09 84° SSW 18:33:02 11° ESE
Orbus 7S? 4.5 18:26:44 10° WNW 18:29:25 26° SW 18:31:32 10° S
SL-14 R/B 3.6 18:25:38 10° N 18:29:35 47° ENE 18:33:29 10° SSE
STARLINK-1202 4.0 18:25:49 10° SSW 18:29:36 40° SE 18:33:23 10° ENE
STARLINK-1123 4.2 18:26:06 10° WNW 18:30:10 51° NNE 18:34:04 11° E
KORONAS-FOTON 4.2 18:27:04 10° NNW 18:30:54 68° W 18:34:40 10° S
STARLINK-1109 3.6 18:29:24 10° WNW 18:33:27 80° SSW 18:37:10 12° ESE
STARLINK-1246 4.0 18:30:42 10° SW 18:34:34 44° SE 18:38:26 10° ENE
STARLINK-1097 4.1 18:31:04 10° WNW 18:35:08 53° NNE 18:38:50 12° E
Cosmos 1943 Rocket 3.0 18:31:52 10° NNW 18:36:54 34° NE 18:41:19 13° ESE
MONITOR-E 3.8 18:34:51 10° SSE 18:37:27 57° ENE 18:40:04 10° N
STARLINK-1091 3.6 18:34:04 10° WNW 18:38:07 76° SSW 18:41:39 13° SE
Cosmos 1980 4.0 18:32:50 10° SSW 18:38:32 76° WNW 18:44:15 10° NNE
Cosmos 1766 3.4 18:34:40 10° SSW 18:38:40 82° W 18:42:40 10° N
STARLINK-1099 4.1 18:36:04 10° WNW 18:40:09 54° NNE 18:43:38 14° E
S3M 4.1 18:34:12 10° S 18:40:34 88° W 18:47:02 10° N
Ariane Rocket 3.1 18:37:00 10° SSE 18:42:05 83° WSW 18:47:12 10° NNW
STARLINK-1224 3.8 18:39:35 10° SW 18:43:29 50° SE 18:47:23 10° ENE
STARLINK-1104 4.0 18:41:04 10° WNW 18:45:09 56° NNE 18:48:25 15° E
Cosmos 1455 Rocket 3.0 18:41:17 10° S 18:45:36 80° E 18:49:59 10° NNE
Cosmos 1110 Rocket 4.4 18:42:09 10° NNW 18:47:22 65° WSW 18:52:31 10° S
TSX-5 4.5 18:42:15 10° NNW 18:47:53 59° NE 18:51:27 15° SE
STARLINK-1225 3.7 18:44:14 10° SW 18:48:10 53° SE 18:51:55 11° ENE
STARLINK-1203 3.5 18:46:12 10° SW 18:50:05 58° SSE 18:53:42 12° ENE
STARLINK-1144 4.0 18:46:02 10° WNW 18:50:07 58° NNE 18:53:11 17° E
Cosmos 1892 Rocket 4.4 18:46:29 10° NNW 18:50:53 55° W 18:55:16 10° S
STARLINK-1072 3.8 18:47:16 10° WNW 18:51:14 62° SSW 18:54:14 17° SE
SL-16 R/B 2.3 18:46:29 10° S 18:51:58 54° ESE 18:57:30 10° NE
Cosmos 1626 Rocket 3.6 18:48:11 10° N 18:52:34 57° ENE 18:56:51 10° SSE
Cosmos 2333 Rocket 4.3 18:47:52 10° WSW 18:52:47 29° NW 18:57:43 10° NNE
STARLINK-1230 3.6 18:48:50 10° SW 18:52:47 57° SSE 18:56:22 12° ENE
USA 186 2.1 18:51:07 10° S 18:54:33 75° WSW 18:57:57 10° NNW
STARLINK-1103 3.9 18:51:00 10° WNW 18:55:07 60° NNE 18:57:58 19° E
Cosmos 1626 2.0 18:51:46 10° N 18:55:30 87° E 18:59:11 10° S
ARGOS Delta rocket 4.4 18:50:34 10° S 18:55:38 68° W 19:01:00 10° NNW
Cosmos 1953 3.4 18:53:53 18° SE 18:55:39 24° E 18:58:51 10° NE
STARLINK-1096 3.9 18:51:45 10° WNW 18:55:41 59° SSW 18:58:31 18° SE
Cosmos 2084 Rocket 4.2 18:51:44 10° NNW 18:55:59 41° NE 18:58:47 19° E
STARLINK-1234 2.8 18:53:04 10° WSW 18:56:04 77° NNW 18:58:25 15° ENE
STARLINK-1243 3.6 18:53:30 10° SW 18:57:28 61° SSE 19:00:53 14° ENE
Okean 1-7 Rocket 4.4 18:54:30 10° NNW 18:58:48 52° W 19:03:03 10° S
Cosmos 1602 Rocket 3.7 18:55:43 10° N 19:00:07 54° ENE 19:03:54 13° SSE
STARLINK-1101 3.9 18:56:00 10° WNW 19:00:07 62° NNE 19:02:46 21° E
STARLINK-1079 4.0 18:56:13 10° WNW 19:00:09 55° SSW 19:02:49 19° SE
Aureole 3 4.2 18:57:25 12° SSE 19:00:48 35° E 19:05:22 10° NNE
STARLINK-1236 3.5 18:58:08 10° SW 19:02:08 65° SSE 19:05:22 15° ENE
STARLINK-1116 4.1 19:00:43 10° WNW 19:04:37 51° SW 19:07:08 20° SE
ATLAS 2AS CENTAUR R/B 3.9 18:57:39 10° NW 19:04:43 35° NNE 19:10:16 14° E
STARLINK-1102 3.8 19:00:59 10° WNW 19:05:06 65° NNE 19:07:32 23° E
DMSP B5D2-2 4.4 19:00:39 10° NNE 19:05:35 41° E 19:10:30 10° SSE
H-2A R/B 2.5 19:01:10 10° S 19:06:27 64° WSW 19:11:38 10° NNW
Aureole 2 Rocket 3.5 19:06:33 10° N 19:09:41 29° ENE 19:10:31 26° E
STARLINK-1111 3.7 19:05:57 10° WNW 19:10:05 68° NNE 19:12:19 26° E
STARLINK-1269 3.4 19:07:29 10° SW 19:11:31 74° SSE 19:14:25 18° ENE
Cosmos 1544 Rocket 3.8 19:08:41 10° SSW 19:13:04 72° W 19:17:31 10° N
STARLINK-1094 4.3 19:09:43 10° WNW 19:13:34 45° SW 19:15:46 22° SSE
ERBS 4.0 19:10:30 10° W 19:13:34 32° NNW 19:16:39 10° NE
USA 234 3.2 19:07:53 10° ENE 19:14:23 63° SE 19:20:51 10° SW
STARLINK-1073 3.7 19:10:56 10° WNW 19:15:05 71° NNE 19:17:06 29° E
Cosmos 2297 4.1 19:09:36 10° NNW 19:15:13 65° WSW 19:20:51 10° SSE
CZ-2C R/B 3.7 19:10:29 10° NNE 19:15:15 67° ESE 19:19:56 10° S
STARLINK-1200 3.4 19:12:11 10° WSW 19:16:13 78° SSE 19:18:56 20° ENE
STARLINK-1117 4.4 19:14:15 10° WNW 19:18:04 42° SW 19:20:07 23° SSE
Cosmos 1825 Rocket 4.3 19:15:22 10° N 19:19:27 35° ENE 19:20:40 29° ESE
STARLINK-1121 3.6 19:15:55 10° WNW 19:20:04 74° NNE 19:21:53 32° E
STARLINK-1192 3.4 19:16:49 10° WSW 19:20:51 83° SSE 19:23:24 22° ENE
Cosmos 2237 Rocket 3.6 19:17:08 10° WSW 19:22:26 41° NW 19:27:46 10° NNE
STARLINK-1078 4.5 19:18:46 10° WNW 19:22:32 39° SW 19:24:26 24° SSE
Cosmos 1302 Rocket 4.4 19:19:42 10° NNW 19:24:56 65° WSW 19:29:43 12° S
STARLINK-1106 3.6 19:20:53 10° WNW 19:25:02 78° NNE 19:26:39 36° ESE
STARLINK-1244 3.4 19:21:36 10° WSW 19:25:39 87° SSE 19:28:01 24° ENE
STARLINK-1201 3.3 19:22:47 10° WSW 19:26:02 65° NNW 19:27:31 29° NE
CZ-2C R/B 2.6 19:22:12 10° NNE 19:27:17 53° E 19:32:19 10° S
Cosmos 1992 Rocket 4.1 19:22:58 10° NNW 19:28:09 59° ENE 19:30:33 31° SE
Cosmos 2184 Rocket 4.1 19:22:00 10° N 19:28:17 59° ENE 19:32:14 23° SSE
Cosmos 1758 Rocket 3.7 19:24:31 10° N 19:28:48 50° ENE 19:30:09 36° SE
STARLINK-1112 3.6 19:25:53 10° WNW 19:30:02 81° NNE 19:31:27 40° ESE
STARLINK-1138 3.5 19:26:17 10° WSW 19:30:21 89° NNW 19:32:32 26° ENE
STARLINK-1209 3.5 19:28:35 10° W 19:31:25 47° NNW 19:32:14 34° NNE
STARLINK-1228 3.5 19:29:34 10° W 19:32:22 46° NNW 19:33:08 35° NNE
NOSS 2-2 (C) 4.5 19:27:33 10° NW 19:33:06 78° NE 19:37:14 28° SE
ARGOS 4.2 19:29:30 10° S 19:34:39 45° W 19:39:50 10° NNW
STARLINK-1128 3.5 19:30:53 10° WNW 19:35:02 86° NNE 19:36:15 45° ESE
Cosmos 1953 Rocket 4.3 19:30:58 10° N 19:35:03 35° ENE 19:35:31 34° E
STARLINK-1143 3.5 19:31:04 10° WSW 19:35:08 85° NNW 19:37:07 29° ENE
SL-8 R/B 3.6 19:31:24 10° W 19:36:12 86° S 19:38:02 38° E
Cosmos 2251 Rocket 3.7 19:31:08 10° S 19:36:15 48° ESE 19:41:26 10° NNE
SL-24 R/B 4.1 19:32:25 10° NNE 19:37:12 83° WNW 19:41:18 10° SSW
Cosmos 1656 Rocket 4.4 19:34:06 10° NNW 19:39:25 38° NE 19:41:14 30° E
STARLINK-1113 3.5 19:35:51 10° WNW 19:40:01 90° NE 19:41:02 51° ESE
Cosmos 1470 3.5 19:38:11 10° SSW 19:41:58 52° WNW 19:45:47 10° N
Cosmos 1606 Rocket 4.0 19:43:16 40° E 19:43:16 40° E 19:47:17 10° NNE
STARLINK-1119 3.5 19:40:50 10° WNW 19:44:59 86° SSW 19:45:48 57° ESE
STARLINK-1241 3.6 19:41:33 10° WSW 19:45:34 76° NNW 19:47:06 36° ENE
STARLINK-1233 3.6 19:42:46 10° W 19:45:50 50° NNW 19:46:21 44° NNE
STARLINK-1212 3.6 19:43:14 10° W 19:46:17 50° NNW 19:46:46 44° NNE
STARLINK-1105 3.6 19:43:40 10° W 19:46:44 50° NNW 19:47:13 44° NNE
STARLINK-1206 3.6 19:44:10 10° W 19:47:13 49° NNW 19:47:38 45° NNE
Resurs 1-3 4.1 19:44:43 20° S 19:47:39 59° W 19:52:00 10° NNW
STARLINK-1247 3.6 19:44:37 10° W 19:47:39 49° NNW 19:48:03 45° NNE
STARLINK-1227 3.6 19:45:01 10° W 19:48:05 49° NNW 19:48:30 45° NNE
ISS -3.8 19:44:50 10° WNW 19:48:11 82° N 19:48:11 82° N
STARLINK-1218 3.6 19:45:31 10° W 19:48:34 48° NNW 19:48:55 45° N
STARLINK-1226 3.6 19:45:59 10° W 19:49:02 48° NNW 19:49:23 46° N
Cosmos 2154 Rocket 4.2 19:42:55 10° N 19:49:10 55° ENE 19:51:32 36° SE
ERS-1 Rocket 3.8 19:48:48 30° ENE 19:49:20 31° ENE 19:53:43 10° N
STARLINK-1254 3.6 19:46:23 10° W 19:49:27 48° NNW 19:49:48 45° N
Cosmos 1758 4.3 19:45:55 10° SSW 19:49:53 48° WNW 19:53:54 10° N
STARLINK-1215 3.6 19:46:53 10° W 19:49:56 48° NNW 19:50:14 46° N
STARLINK-1114 3.5 19:45:50 10° WNW 19:49:59 81° SSW 19:50:36 63° SE
STARLINK-1239 3.7 19:46:08 10° WSW 19:50:10 73° NNW 19:51:30 40° NE
STARLINK-1231 3.6 19:47:20 10° W 19:50:22 48° NNW 19:50:39 46° N
STARLINK-1232 3.6 19:48:14 10° W 19:51:16 47° NNW 19:51:31 46° N
USA 245 4.2 19:50:07 43° ESE 19:51:23 55° ENE 19:57:03 10° N
STARLINK-1217 3.7 19:48:42 10° W 19:51:43 47° NNW 19:51:58 46° N
STARLINK-1208 3.7 19:49:07 10° W 19:52:10 47° NNW 19:52:25 46° N
STARLINK-1229 3.7 19:49:36 10° W 19:52:38 47° NNW 19:52:49 46° N
BREEZE-M DEB (TANK) 3.1 19:47:05 10° WNW 19:52:56 83° SSW 19:53:10 75° SE
STARLINK-1271 3.7 19:50:04 10° W 19:53:06 47° NNW 19:53:16 46° N
STARLINK-1270 3.7 19:50:31 10° W 19:53:33 46° NNW 19:53:42 46° N
BREEZE M DEB (TANK) 4.3 19:45:37 10° SW 19:53:49 35° SSE 19:53:49 35° SSE
STARLINK-1154 3.7 19:50:57 10° W 19:53:59 46° NNW 19:54:07 46° N
STARLINK-1240 3.7 19:50:46 10° WSW 19:54:46 70° NNW 19:55:56 43° NE
STARLINK-1197 3.7 19:51:52 10° W 19:54:53 46° NNW 19:54:59 46° N
STARLINK-1130 (DARKSAT) 3.5 19:50:48 10° WNW 19:54:57 77° SSW 19:55:22 67° SSE
Resurs 01 Rocket 1.8 19:53:05 33° S 19:54:58 70° WSW 19:59:24 10° NNW
STARLINK-1189 3.7 19:52:19 10° W 19:55:21 46° NNW 19:55:26 46° N
SPOT 5 3.9 19:56:05 26° NE 19:56:05 26° NE 19:59:20 10° N
Cosmos 2369 Rocket 2.1 19:49:57 10° NNW 19:55:43 89° ENE 19:57:50 41° SSE
STARLINK-1187 3.8 19:53:12 10° W 19:56:14 44° NNW 19:56:20 43° N
STARLINK-1188 3.8 19:53:13 10° W 19:56:15 45° NNW 19:56:17 45° NNW
STARLINK-1198 3.8 19:53:27 10° W 19:56:29 45° NNW 19:56:31 45° NNW
STARLINK-1235 3.9 19:53:56 10° W 19:56:57 42° NNW 19:57:05 41° N
STARLINK-1199 3.8 19:55:10 10° W 19:58:13 45° NNW 19:58:13 45° NNW
STARLINK-1191 3.8 19:55:38 10° W 19:58:39 45° NNW 19:58:39 45° NNW
STARLINK-1210 3.8 19:56:04 10° W 19:59:04 45° NNW 19:59:04 45° NNW
STARLINK-1216 3.8 19:55:24 10° WSW 19:59:24 67° NNW 20:00:23 47° NE
Cosmos 2263 4.1 19:53:47 10° NNW 19:59:26 73° ENE 20:01:00 48° SE
STARLINK-1221 3.9 19:56:32 10° W 19:59:32 45° NNW 19:59:32 45° NNW
STARLINK-1084 3.5 19:55:46 10° WNW 19:59:55 72° SSW 20:00:09 69° S
STARLINK-1219 3.9 19:57:00 10° W 19:59:57 44° NNW 19:59:57 44° NNW
STARLINK-1222 3.9 19:57:26 10° W 20:00:23 44° NNW 20:00:23 44° NNW
STARLINK-1211 3.9 19:57:54 10° W 20:00:48 44° NNW 20:00:48 44° NNW
STARLINK-1214 3.9 19:58:21 10° W 20:01:15 44° NNW 20:01:15 44° NNW
STARLINK-1245 4.0 19:58:51 10° W 20:01:40 43° NNW 20:01:40 43° NNW
STARLINK-1238 4.0 19:59:16 10° W 20:02:07 43° NNW 20:02:07 43° NNW
STARLINK-1205 4.0 20:00:13 10° W 20:02:59 42° NNW 20:02:59 42° NNW
STARLINK-1204 4.0 20:00:39 10° W 20:03:23 42° NNW 20:03:23 42° NNW
STARLINK-1237 3.8 20:00:05 10° W 20:04:05 64° NNW 20:04:52 50° NE
STARLINK-1098 3.6 20:00:45 10° WNW 20:04:52 68° SSW 20:04:55 68° SSW
Cosmos 1726 2.1 20:06:30 78° NW 20:06:30 78° NW 20:10:08 10° N
Landsat 7 3.8 20:06:34 57° E 20:06:52 58° ENE 20:11:34 10° N
STARLINK-1202 3.9 20:04:43 10° W 20:08:43 61° NNW 20:09:18 54° NNE
Nadezhda 1 Rocket 4.0 20:06:17 34° SSE 20:09:12 69° E 20:15:34 10° NNE
STARLINK-1123 3.8 20:05:45 10° WNW 20:09:44 63° SW 20:09:44 63° SW
Cosmos 2228 3.1 20:11:03 63° NE 20:11:03 63° NE 20:14:51 10° NNE
MOS 1 Rocket 3.9 20:07:07 10° N 20:12:15 65° WNW 20:17:34 10° SSW
SAR-Lupe-2 4.3 20:09:40 10° NNE 20:12:21 48° N 20:12:21 48° N
STARLINK-1246 4.0 20:09:50 10° W 20:13:52 59° NNW 20:14:18 55° NNE
STARLINK-1097 4.0 20:10:43 10° WNW 20:14:29 57° SW 20:14:29 57° SW
Cosmos 292 Rocket 4.5 20:13:12 10° NNW 20:17:49 49° WSW 20:19:07 38° SSW
Cosmos 1943 3.1 20:19:28 61° ESE 20:19:28 61° ESE 20:25:01 10° NE
STARLINK-1099 4.2 20:15:44 10° WNW 20:19:17 51° WSW 20:19:17 51° WSW
Cosmos 1943 Rocket 2.9 20:15:32 10° NW 20:20:49 47° WSW 20:22:51 32° SSW
Cosmos 2058 Rocket 4.1 20:24:10 35° NE 20:24:10 35° NE 20:26:59 10° NNE
STARLINK-1224 4.1 20:18:45 10° W 20:22:44 55° NNW 20:22:45 55° NNW
Cosmos 2074 Rocket 4.5 20:16:51 10° NNW 20:22:59 58° W 20:26:46 24° SSW
NOSS 3-4 (A) 4.0 20:17:04 10° NW 20:23:50 59° NE 20:25:57 44° E
NOSS 3-4 (C) 4.0 20:17:10 10° NW 20:23:56 59° NE 20:26:03 44° E
STARLINK-1104 4.4 20:20:44 10° WNW 20:24:04 45° WSW 20:24:04 45° WSW
Cosmos 1328 4.2 20:23:13 10° NNW 20:26:45 60° NW 20:26:45 60° NW
STARLINK-1225 4.2 20:23:29 10° W 20:27:17 53° NNW 20:27:17 53° NNW
STARLINK-1203 4.3 20:25:12 10° W 20:28:44 49° NNW 20:28:44 49° NNW
Cosmos 1953 4.0 20:29:29 17° SW 20:31:54 31° WNW 20:35:29 10° N
STARLINK-1230 4.3 20:28:09 10° W 20:31:44 50° NW 20:31:44 50° NW
SPOT 1/Viking Rocket 3.4 20:32:06 81° SE 20:32:22 86° ENE 20:37:38 10° NNW
NOSS 3-3 (A) 3.8 20:27:57 10° SSW 20:33:50 79° SE 20:40:32 10° NE
NOSS 3-3 (C) 3.8 20:28:03 10° SSW 20:33:57 79° SE 20:40:38 10° NE
Spot 2 Rocket 3.8 20:33:07 52° SSW 20:34:01 62° WSW 20:39:07 10° NNW
SL-16 R/B 4.0 20:31:23 10° WSW 20:36:23 31° NW 20:41:26 10° NNE
IGS 5A 4.2 20:42:14 52° NW 20:42:14 52° NW 20:45:35 10° NNW
Terra 2.5 20:49:36 46° NNE 20:49:36 46° NNE 20:53:10 10° N
CARTOSAT-1 4.5 20:50:52 45° N 20:50:52 45° N 20:53:55 10° NNW
Cosmos 2341 Rocket 3.9 20:46:55 10° N 20:53:19 89° ENE 20:53:51 77° S
Cosmos 1726 Rocket 4.5 20:55:09 46° WNW 20:55:09 46° WNW 20:59:02 10° N
ATLAS 2AS CENTAUR R/B 2.7 20:49:02 10° NW 20:56:45 85° NE 20:57:41 71° SE
USA 234 3.7 20:51:00 10° NE 20:57:24 60° NNW 21:03:48 10° W
Cosmos 1603 4.1 20:53:25 18° SW 20:57:39 60° WNW 21:03:14 10° NNE
APEX 4.4 20:59:08 10° NNW 21:06:05 88° NNE 21:06:05 88° NNE
Aureole 1 Rocket 4.2 21:07:14 62° SSW 21:08:42 87° ESE 21:15:19 10° NNE
COSMOS 2455 3.1 21:05:36 10° NNW 21:11:09 59° NNE 21:11:09 59° NNE
Cosmos 2218 Rocket 4.0 21:15:49 10° N 21:21:25 75° NNW 21:21:25 75° NNW
ERS-1 Rocket 4.1 21:28:47 38° WNW 21:28:47 38° WNW 21:32:46 10° NNW
ATLAS CENTAUR R/B 4.3 21:28:13 10° N 21:29:15 11° NNE 21:29:15 11° NNE
Cosmos 2181 Rocket 4.1 21:33:10 70° NW 21:33:10 70° NW 21:38:52 10° N
SPOT 5 4.5 21:35:19 28° NW 21:35:19 28° NW 21:37:48 10° NNW
Cosmos 2369 Rocket 4.3 21:35:35 10° WNW 21:38:55 16° W 21:39:39 16° WSW
CZ-4C R/B 4.1 21:58:10 10° NW 22:04:06 33° NNE 22:06:33 27° ENE
Mayak 1.5 22:06:00 10° N 22:06:55 16° N 22:06:55 16° N
Terra 4.3 22:28:29 15° WNW 22:28:29 15° WNW 22:29:59 10° NW
Cosmos 1697 Rocket 4.1 22:22:32 10° NNW 22:26:02 34° N 22:26:02 34° N
USA 234 4.2 22:33:45 10° ENE 22:39:50 43° N 22:45:56 10° WNW
ATLAS 2AS CENTAUR R/B 4.4 22:41:02 10° WNW 22:45:08 23° W 22:45:08 23° W
Cosmos 1980 Rocket 3.8 22:47:37 10° NNW 22:50:55 31° N 22:50:55 31° N
Cosmos 2082 Rocket 4.3 23:15:19 20° NE 23:15:19 20° NE 23:17:05 10° NE
SL-16 R/B 4.2 23:21:37 24° ENE 23:22:02 25° NE 23:26:54 10° N
ATLAS 5 CENTAUR R/B 4.2 23:39:12 20° NNE 23:39:12 20° NNE 23:41:17 10° NNE
Cosmos 1833 Rocket 4.3 23:45:09 31° NNE 23:45:09 31° NNE 23:48:03 10° NNE
